Wind_Speed
24 23 18 17 21 23 24 22 20 18 15 14 14 15 15 14 15 15 16 17 17 17 17 18 18 18 18 18 19 19 18 19 18
23 20 18 18 22 24 23 21 18 16 15 15 17 17 16 15 15 16 17 18 17 17 17 17 17 17 17 17 18 18 18 17 18
22 18 17 21 23 23 23 21 17 17 17 17 18 17 16 15 15 16 17 17 17 17 17 16 16 16 16 16 16 16 16 16 16
22 19 19 24 24 22 21 20 18 18 18 18 18 17 16 15 15 16 16 15 15 16 15 14 14 14 14 14 14 14 14 14 14
22 20 24 25 25 22 22 21 19 19 19 18 17 16 15 14 14 15 15 14 14 13 13 13 12 12 12 12 12 12 12 12 12
22 23 26 26 25 23 22 21 21 19 18 17 16 15 14 14 13 13 13 12 12 11 11 11 10 10 10 10 10 10 10 10 10
23 29 26 27 25 24 22 21 20 18 17 16 14 13 13 12 12 12 11 11 10 10 10 9 9 9 9 9 8 8 8 8 8
29 32 26 28 26 25 22 20 18 16 15 14 13 12 11 10 10 10 9 9 9 9 8 8 8 7 7 7 7 7 7 7 7
35 35 30 30 27 24 22 20 18 15 14 12 11 11 9 8 8 7 7 7 7 7 6 7 6 6 6 6 6 6 6 6 6
37 36 32 30 27 24 22 19 16 14 12 10 9 8 7 6 6 5 5 5 5 4 4 4 4 4 4 5 5 5 5 5 6
35 34 32 30 26 22 19 17 15 13 11 8 7 6 5 4 4 3 3 3 3 3 3 2 2 2 2 3 4 5 5 5 5
35 34 33 30 26 22 19 19 15 12 10 8 6 6 6 5 4 4 4 4 3 3 3 2 1 1 0 1 3 4 4 3 4
34 33 31 30 27 24 20 18 15 13 10 8 8 7 7 7 7 7 7 7 6 6 5 5 4 3 3 2 2 2 1 4 3
32 31 30 28 27 24 21 19 16 13 10 9 10 11 11 11 11 11 10 10 10 9 8 8 7 6 6 5 6 7 7 8 8
31 30 28 27 25 24 22 19 16 13 12 12 11 12 12 13 14 14 14 15 14 13 12 12 11 10 8 8 7 8 11 11 11
31 29 27 26 25 22 19 18 17 13 11 11 12 13 15 16 16 16 17 17 17 17 16 16 15 14 12 11 8 8 9 13 13
29 28 28 26 24 22 20 18 14 12 12 12 11 10 12 12 11 14 18 20 20 20 18 17 17 15 15 13 13 9 11 11 12
27 28 27 25 23 21 19 17 14 11 12 13 12 6 5 9 9 11 15 18 20 20 19 18 17 16 16 14 16 13 15 16 16
25 24 22 21 19 18 17 15 14 12 16 17 16 17 20 14 15 13 11 11 14 17 18 19 17 16 17 15 12 13 16 16 16
26 22 20 19 18 18 17 16 16 17 17 18 20 18 19 23 27 25 26 24 14 15 18 18 19 16 16 12 13 12 16 18 17
Wind_Direction
159 159 156 150 144 143 140 137 132 127 123 114 107 106 105 107 106 102 98 94 91 88 87 85 83 81 80 78 76 75 74 73 73
163 163 158 152 145 143 144 143 136 131 123 116 111 106 104 103 103 100 96 92 89 88 87 86 84 82 79 76 75 74 73 70 68
167 166 162 155 147 145 143 142 135 131 124 118 112 108 106 105 101 97 94 92 90 88 87 86 84 81 79 77 76 73 71 69 69
171 169 164 153 150 148 147 144 137 130 124 119 114 111 108 105 100 96 94 92 89 88 87 86 81 79 78 77 74 70 67 65 63
174 169 161 154 150 149 144 141 135 129 126 122 118 114 109 105 100 97 94 91 90 89 88 86 84 82 78 73 70 67 64 59 57
176 170 161 156 153 149 144 141 135 130 127 123 120 115 112 107 102 98 95 93 92 91 89 87 84 81 76 71 65 63 62 59 55
178 168 161 158 155 152 147 143 139 135 132 129 125 120 116 111 105 101 99 96 94 92 92 92 87 79 73 69 65 63 59 58 53
173 166 160 161 161 157 153 149 147 144 138 135 132 126 121 115 110 106 103 99 96 95 95 93 88 83 74 67 62 56 54 50 46
171 169 166 166 165 162 159 156 154 153 149 142 138 133 128 120 115 111 109 106 103 102 101 97 93 82 71 61 52 51 49 50 44
173 172 170 172 171 170 165 163 161 160 159 157 149 145 140 131 126 125 127 127 123 117 111 106 98 84 66 55 45 40 46 44 45
173 174 175 177 178 174 172 172 173 172 169 168 170 171 167 164 165 165 164 161 152 151 157 141 120 87 61 52 41 33 28 33 37
175 177 180 181 181 182 183 183 185 187 190 194 195 203 211 216 225 227 230 230 224 220 217 216 222 230 319 34 31 24 19 24 28
180 181 183 185 186 188 193 194 199 204 210 225 233 241 240 247 254 249 246 244 245 245 246 248 251 265 284 299 321 357 45 7 352
186 185 185 187 189 193 196 201 205 212 230 241 247 253 255 259 260 260 258 254 251 250 251 254 257 260 266 282 296 318 314 338 338
187 189 190 191 194 198 202 207 209 221 233 242 253 263 269 271 271 269 264 260 256 252 251 254 256 257 259 264 273 271 277 297 311
186 188 192 195 199 202 206 212 219 227 238 251 264 272 277 279 277 273 270 263 256 252 249 252 254 256 259 260 273 279 278 278 295
189 192 195 199 203 207 211 214 219 231 246 258 274 289 294 285 275 271 265 260 257 252 252 253 253 256 259 263 264 275 274 278 283
193 196 199 202 205 209 211 215 228 243 249 253 252 280 271 294 305 299 280 257 254 253 251 250 248 252 256 263 267 267 272 266 269
198 197 196 199 204 208 218 225 236 247 250 252 262 267 266 281 293 288 296 286 258 247 246 247 246 246 248 255 266 273 285 279 266
200 200 201 204 212 220 228 237 240 244 255 273 279 274 270 279 274 278 276 267 272 245 236 241 247 249 248 250 273 285 283 275 266
Height
1558 1559 1562 1565 1567 1569 1571 1573 1575 1577 1578 1580 1581 1582 1583 1584 1584 1585 1585 1584 1585 1585 1584 1584 1584 1584 1584 1584 1583 1582 1582 1581 1581
1557 1561 1563 1566 1568 1570 1573 1574 1576 1578 1579 1581 1582 1583 1584 1585 1586 1586 1586 1586 1587 1587 1587 1587 1587 1586 1586 1586 1585 1585 1584 1583 1583
1558 1561 1563 1566 1569 1572 1574 1576 1578 1579 1580 1582 1583 1585 1586 1587 1588 1588 1589 1589 1589 1589 1589 1589 1589 1589 1588 1588 1588 1587 1587 1586 1585
1559 1561 1564 1566 1570 1573 1575 1577 1579 1580 1582 1584 1585 1586 1588 1589 1590 1591 1591 1591 1591 1591 1591 1591 1591 1591 1591 1590 1590 1589 1589 1588 1587
1559 1562 1564 1567 1571 1574 1576 1578 1580 1582 1583 1585 1587 1588 1590 1591 1592 1592 1593 1593 1593 1592 1592 1593 1592 1592 1592 1592 1591 1591 1590 1589 1589
1558 1562 1565 1568 1572 1575 1577 1580 1581 1583 1585 1587 1589 1590 1591 1592 1593 1594 1594 1594 1594 1594 1594 1594 1594 1594 1594 1594 1593 1593 1592 1591 1590
1558 1562 1565 1569 1572 1576 1578 1581 1583 1585 1586 1588 1590 1591 1592 1593 1594 1595 1595 1595 1595 1595 1595 1595 1595 1595 1595 1594 1594 1593 1593 1592 1591
1557 1561 1565 1569 1573 1576 1578 1581 1583 1586 1587 1589 1591 1592 1593 1594 1595 1596 1596 1596 1596 1596 1596 1596 1596 1595 1595 1595 1594 1593 1593 1593 1592
1555 1560 1564 1568 1572 1575 1578 1580 1583 1586 1588 1590 1591 1593 1594 1594 1595 1596 1596 1597 1597 1597 1597 1597 1597 1596 1596 1595 1595 1594 1593 1593 1593
1553 1558 1563 1567 1571 1575 1577 1581 1584 1586 1588 1590 1592 1593 1594 1595 1595 1596 1596 1597 1597 1597 1597 1598 1597 1597 1597 1596 1595 1595 1594 1593 1593
1552 1557 1562 1566 1571 1575 1578 1581 1583 1586 1588 1590 1592 1593 1594 1595 1596 1596 1597 1597 1597 1597 1598 1598 1598 1598 1597 1596 1595 1595 1595 1594 1593
1551 1556 1561 1565 1570 1574 1577 1579 1582 1585 1588 1590 1591 1592 1593 1594 1595 1595 1596 1597 1597 1597 1597 1597 1597 1597 1597 1597 1596 1595 1594 1594 1593
1551 1555 1560 1564 1569 1572 1576 1578 1581 1584 1586 1589 1590 1591 1592 1593 1593 1594 1595 1595 1596 1596 1596 1596 1596 1596 1596 1596 1595 1594 1594 1593 1593
1549 1554 1559 1563 1567 1572 1575 1578 1580 1583 1585 1587 1588 1589 1590 1591 1592 1592 1593 1593 1594 1594 1595 1595 1595 1595 1594 1594 1593 1593 1592 1592 1591
1547 1552 1557 1561 1566 1570 1573 1577 1580 1582 1584 1585 1586 1587 1588 1588 1588 1589 1590 1590 1591 1592 1592 1592 1592 1592 1592 1591 1591 1592 1591 1590 1590
1545 1550 1555 1559 1564 1568 1573 1576 1578 1581 1582 1584 1584 1584 1584 1584 1584 1585 1585 1585 1586 1587 1588 1589 1589 1589 1590 1590 1590 1589 1590 1589 1587
1543 1548 1552 1557 1562 1566 1570 1574 1577 1579 1580 1581 1582 1581 1581 1580 1580 1581 1581 1581 1581 1582 1584 1585 1586 1587 1588 1588 1588 1588 1587 1587 1586
1543 1547 1550 1555 1559 1564 1568 1571 1574 1576 1578 1578 1580 1579 1578 1578 1577 1578 1577 1575 1575 1577 1579 1580 1581 1583 1584 1584 1585 1583 1584 1583 1583
1542 1546 1549 1553 1558 1561 1566 1569 1571 1573 1574 1574 1574 1574 1576 1577 1575 1574 1573 1573 1571 1571 1574 1576 1577 1577 1579 1579 1580 1579 1579 1579 1579
1539 1544 1548 1551 1555 1559 1563 1566 1567 1569 1571 1572 1571 1572 1572 1573 1573 1568 1568 1570 1569 1567 1568 1570 1571 1573 1574 1575 1576 1575 1574 1575 1574